[TLELIST]

  • This mailing list is a public mailing list - anyone may join or leave, at any time.
  • This mailing list is announce-only.

International Space Station (ISS) / Hubble Space Telescope (HST) / Chandra X-Ray Observatory Orbital Data via EMAIL

Privacy Policy:

Private list

Archived Messages

 

[TLELIST] Current TLEs

March 13th 2026 PDT

0 HST 1 20580U 90037B 26071.94420327 .00008743 00000-0 28877-3 0 9998 2 20580 28.4723 17.7975 0001801 157.8636 202.2037 15.29540863773810 0 ISS (ZARYA) 1 25544U 98067A 26071.86901803 .00011348 00000-0 21655-3 0 9990 2 25544 51.6324 56.6367 0007924 186.1410 173.9482 15.48614629556825 0 CXO 1 25867U 99040B 26074.17591503 .00001098 00000-0 00000+0 0 9997 2 25867 54.6015 119.5309 7987924 310.6410 0.3950 0.37797975 16963 ...Continue Reading

[TLELIST] Current TLEs

March 12th 2026 PDT

0 HST 1 20580U 90037B 26071.22647860 .00008646 00000-0 28559-3 0 9991 2 20580 28.4723 22.6938 0001818 150.2149 209.8550 15.29528665773705 0 ISS (ZARYA) 1 25544U 98067A 26071.15917150 .00009166 00000-0 17667-3 0 9997 2 25544 51.6325 60.1463 0007984 183.4136 176.6799 15.48595269556711 0 CXO 1 25867U 99040B 26071.53156319 .00001015 00000-0 00000-0 0 9996 2 25867 54.5614 119.5985 7991212 310.6812 0.3445 0.37798688 16958 ...Continue Reading

[TLELIST] Current TLEs

March 12th 2026 PDT

0 HST 1 20580U 90037B 26071.22647860 .00008646 00000-0 28559-3 0 9991 2 20580 28.4723 22.6938 0001818 150.2149 209.8550 15.29528665773705 0 ISS (ZARYA) 1 25544U 98067A 26071.15917150 .00009166 00000-0 17667-3 0 9997 2 25544 51.6325 60.1463 0007984 183.4136 176.6799 15.48595269556711 0 CXO 1 25867U 99040B 26071.53156319 .00001015 00000-0 00000-0 0 9996 2 25867 54.5614 119.5985 7991212 310.6812 0.3445 0.37798688 16958 ...Continue Reading

[TLELIST] Current TLEs

March 11th 2026 PDT

0 HST 1 20580U 90037B 26070.24775401 .00008856 00000-0 29286-3 0 9996 2 20580 28.4722 29.3700 0001841 140.8013 219.2716 15.29511346773556 0 ISS (ZARYA) 1 25544U 98067A 26070.19118651 .00009215 00000-0 17770-3 0 9999 2 25544 51.6325 64.9326 0007932 179.9008 180.1983 15.48575655556567 0 CXO 1 25867U 99040B 26071.53156319 .00001015 00000-0 00000-0 0 9996 2 25867 54.5614 119.5985 7991212 310.6812 0.3445 0.37798688 16958 ...Continue Reading

[TLELIST] Current TLEs

March 10th 2026 PDT

0 HST 1 20580U 90037B 26069.20376848 .00009369 00000-0 31039-3 0 9991 2 20580 28.4717 36.4910 0001862 130.7593 229.3165 15.29493470773395 0 ISS (ZARYA) 1 25544U 98067A 26069.15865510 .00009130 00000-0 17626-3 0 9992 2 25544 51.6324 70.0375 0007972 176.2903 183.8146 15.48557200556406 0 CXO 1 25867U 99040B 26071.53156319 .00001015 00000-0 00000-0 0 9996 2 25867 54.5614 119.5985 7991212 310.6812 0.3445 0.37798688 16958 ...Continue Reading

[TLELIST] Current TLEs

March 9th 2026 PDT

0 HST 1 20580U 90037B 26067.05050796 .00011037 00000-0 36739-3 0 9990 2 20580 28.4714 51.1800 0001798 110.1029 249.9760 15.29454135773066 0 ISS (ZARYA) 1 25544U 98067A 26067.73890429 .00009449 00000-0 18227-3 0 9992 2 25544 51.6319 77.0569 0008051 171.0721 189.0412 15.48531098556188 0 CXO 1 25867U 99040B 26068.88963123 .00000910 00000-0 00000+0 0 9991 2 25867 54.5228 119.6616 7994404 310.7122 0.6283 0.37803164 16951 ...Continue Reading

[TLELIST] Current TLEs

March 9th 2026 PDT

0 HST 1 20580U 90037B 26067.05050796 .00011037 00000-0 36739-3 0 9990 2 20580 28.4714 51.1800 0001798 110.1029 249.9760 15.29454135773066 0 ISS (ZARYA) 1 25544U 98067A 26067.73890429 .00009449 00000-0 18227-3 0 9992 2 25544 51.6319 77.0569 0008051 171.0721 189.0412 15.48531098556188 0 CXO 1 25867U 99040B 26068.88963123 .00000910 00000-0 00000+0 0 9991 2 25867 54.5228 119.6616 7994404 310.7122 0.6283 0.37803164 16951 ...Continue Reading

[TLELIST] Current TLEs

March 8th 2026 PDT

0 HST 1 20580U 90037B 26067.05050795 .00011037 00000-0 36739-3 0 9999 2 20580 28.4714 51.1800 0001798 110.1029 249.9760 15.29454135773066 0 ISS (ZARYA) 1 25544U 98067A 26066.77087839 .00014056 00000-0 26707-3 0 9990 2 25544 51.6320 81.8427 0008117 167.9196 192.1989 15.48514260556039 0 CXO 1 25867U 99040B 26068.88963123 .00000910 00000-0 00000+0 0 9991 2 25867 54.5228 119.6616 7994404 310.7122 0.6283 0.37803164 16951 ...Continue Reading

[TLELIST] Current TLEs

March 7th 2026 PDT

0 HST 1 20580U 90037B 26066.07173350 .00008800 00000-0 29166-3 0 9993 2 20580 28.4710 57.8566 0001811 100.2256 259.8544 15.29432289772911 0 ISS (ZARYA) 1 25544U 98067A 26066.25459274 .00014982 00000-0 28421-3 0 9992 2 25544 51.6318 84.3952 0008143 166.2106 193.9106 15.48501510555953 0 CXO 1 25867U 99040B 26068.88963123 .00000910 00000-0 00000-0 0 9992 2 25867 54.5229 119.6616 7994404 310.7123 0.6283 0.37803164 16953 ...Continue Reading

[TLELIST] Current TLEs

March 6th 2026 PDT

0 HST 1 20580U 90037B 26065.09294664 .00008390 00000-0 27790-3 0 9991 2 20580 28.4707 64.5335 0001796 90.2676 269.8125 15.29414630772761 0 ISS (ZARYA) 1 25544U 98067A 26065.22200803 .00008136 00000-0 15844-3 0 9999 2 25544 51.6317 89.5003 0008136 162.2758 197.8515 15.48470661555798 0 CXO 1 25867U 99040B 26066.24394024 .00000830 00000-0 00000-0 0 9999 2 25867 54.5001 119.7161 7997895 310.7431 0.4039 0.37807298 16944 ...Continue Reading